Location: Banios
(43.0451°N, 0.2335°E)
Time: 00:28:40
(UTC+00:00)

N. Korean satellite - Pass Details

Date: 03 December 2021
Orbit: 447 x 491 km, 97.3° (Epoch: 21 January)

Event Time Altitude Azimuth Distance (km) Brightness Sun altitude
Rises 17:28:10 0° 210° (SSW) 2,535 11.1 -11.3°
Reaches altitude 10° 17:31:09 10° 238° (WSW) 1,651 10.7 -11.8°
Maximum altitude 17:32:56 13° 268° (W) 1,455 10.2 -12.1°
Drops below altitude 10° 17:34:42 10° 298° (WNW) 1,645 9.9 -12.4°
Sets 17:37:40 0° 327° (NNW) 2,516 10.4 -13.0°
